Back to catalog

FENGYUN 1C DEB

AliveSSO
NORAD 30199·DEBRIS·🇨🇳 China

Launched May 10, 1999 from Taiyuan Satellite Launch Center

Loading…

Next Passes (next 24 hours)

TLE

FreshSource: Space-Track

Epoch: Sep 14, 2026, 00:18 UTC

1 30199U 99025VG  26257.01256329  .00001414  00000-0  44840-3 0  9990
2 30199  98.3667 279.4056 0076783 200.8583 190.4468 14.39866636 23709

Track FENGYUN 1C DEB in real time with AllMySat

Download on the App Store